This is the latest recevied weather packets stored in our database for station/object KH6DH-13. If no packets are shown the sender has not sent any weather packets the latest 10 day(s).
| Time | Temp. | Humidity | Pressure | Rain* | Wind** | Luminosity | Snow |
|---|---|---|---|---|---|---|---|
| 1777479971 | 22.78° C | - | - | 0.51 mm | 0.89 m/s, 24° | - | - |
| 1777479370 | 22.78° C | - | - | 0.51 mm | 0.45 m/s, 53° | - | - |
| 1777478769 | 22.22° C | - | - | 0.51 mm | 0.89 m/s, 312° | - | - |
| 1777478168 | 22.78° C | - | - | 0.51 mm | 2.24 m/s, 52° | - | - |
| 1777477564 | 22.78° C | - | - | 0.51 mm | 1.34 m/s, 83° | - | - |
| 1777476963 | 22.78° C | - | - | 0.51 mm | 0.89 m/s, 8° | - | - |
| 1777476362 | 22.22° C | - | - | 0 mm | 2.68 m/s, 46° | - | - |
| 1777475761 | 22.22° C | - | - | 0 mm | 0.45 m/s, 21° | - | - |
| 1777475160 | 22.78° C | - | - | 0 mm | 0 m/s | - | - |
| 1777474559 | 22.78° C | - | - | 0 mm | 0.89 m/s, 94° | - | - |
| 1777473958 | 22.78° C | - | - | 0 mm | 1.34 m/s, 111° | - | - |
| 1777473357 | 22.78° C | - | - | 0 mm | 0.45 m/s, 11° | - | - |
| 1777472756 | 22.78° C | - | - | 0 mm | 0 m/s | - | - |
| 1777472155 | 22.78° C | - | - | 0 mm | 0 m/s | - | - |
| 1777471554 | 23.33° C | - | - | 0 mm | 0 m/s | - | - |
| 1777470953 | 23.33° C | - | - | 0 mm | 0 m/s | - | - |
| 1777470352 | 23.33° C | - | - | 0 mm | 0.89 m/s, 94° | - | - |
| 1777469751 | 23.33° C | - | - | 0 mm | 0.89 m/s, 63° | - | - |
| 1777469150 | 23.33° C | - | - | 0 mm | 0.45 m/s, 45° | - | - |
| 1777468549 | 23.33° C | - | - | 0 mm | 0 m/s | - | - |
| 1777467948 | 23.33° C | - | - | 0 mm | 1.79 m/s, 76° | - | - |
| 1777467347 | 23.33° C | - | - | 0 mm | 1.34 m/s, 53° | - | - |
| 1777466746 | 23.33° C | - | - | 0 mm | 0.45 m/s, 52° | - | - |
| 1777466145 | 23.33° C | - | - | 0 mm | 1.79 m/s, 39° | - | - |
| 1777465544 | 23.33° C | - | - | 0 mm | 0.45 m/s, 42° | - | - |
* Rain latest hour (hover to see other rain measurements)
** Current wind speed in m/s (hover to see current wind gust speed)